Retour au catalogue

SL-24 DEB

ActifSSO
NORAD 28374·DEBRIS·🇷🇺 Russia

Lancé Jun 29, 2004 depuis Baikonur Cosmodrome

Loading…

Prochains Passages (prochaines 24 heures)

TLE

FraisSource: Space-Track

Époque: Sep 13, 2026, 22:55 UTC

1 28374U 04025J   26256.95503256  .00002852  00000-0  32948-3 0  9997
2 28374  98.2262 231.6166 0013587  37.8670  29.7489 14.86375323185325

Suivez SL-24 DEB en temps réel avec AllMySat

Download on the App Store